Station 51WH0 - WHOTS - Woods Hole Ocean Time-series Image indicating link to RSS feed of recent meteorological observations for station 51WH0


Conditions at 51WH0 as of
(5:30 am HAST)
1530 GMT on 04/18/2024:
     

Click on the graph icon in the table below to see a time series plot of the last five days of that observation.

5-day plot - Wind Direction Wind Direction (WDIR): NE ( 50 deg true )
5-day plot - Wind Speed Wind Speed (WSPD): 17.5 kts
5-day plot - Atmospheric Pressure Atmospheric Pressure (PRES):30.06 in
5-day plot - Air Temperature Air Temperature (ATMP): 68.9 °F
5-day plot - Water Temperature Water Temperature (WTMP): 74.8 °F
5-day plot - Salinity Salinity (SAL): 35.00 psu
5-day plot - Dew Point Dew Point (DEWP): 67.1 °F
5-day plot - Wind Speed at 10 Meters Wind Speed at 10 meters (WSPD10M): 19.4 kts
5-day plot - Wind Speed at 20 Meters Wind Speed at 20 meters (WSPD20M): 21.4 kts
5-day plot -  Wind Speed, Wind Gust and Atmospheric Pressure Combined plot of Wind Speed, Gust, and Air Pressure
Previous observations
TIME
(HAST)
5-day plot - Wind Direction
WDIR
 
5-day plot - Wind Speed
WSPD
kts
5-day plot - Wind Gust
GST
kts
5-day plot - Wave Height
WVHT
ft
5-day plot - Dominant Wave Period
DPD
sec
5-day plot - Average Wave Period
APD
sec
5-day plot - Mean Wave Direction
MWD
 
5-day plot - Atmospheric Pressure
PRES
in
5-day plot - Pressure Tendency
PTDY
in
5-day plot - Air Temperature
ATMP
°F
5-day plot - Water Temperature
WTMP
°F
5-day plot - Dew Point
DEWP
°F
5-day plot - Salinity
SAL
psu
5-day plot - Visibility
VIS
nmi
5-day plot - Tide (above MLLW)
TIDE
ft
2024-04-18 04:30 am NE 15.5-----30.05- 69.1 75.0 67.3 35.00--
2024-04-18 03:30 am NE 15.5-----30.05- 69.8 75.0 67.1 35.00--
2024-04-18 02:30 am NE 11.7-----30.06- 69.4 75.0 66.4 35.10--
2024-04-18 01:30 amENE 11.7-----30.07- 69.6 75.0 66.0 35.00--
2024-04-18 12:30 am NE 15.5-----30.08- 70.9 75.0 66.7 35.00--
2024-04-17 11:30 pm NE 15.5-----30.09- 72.1 75.2 66.4 35.00--
2024-04-17 10:30 pm NE 13.6-----30.09- 72.9 75.2 65.5 35.00--
2024-04-17 09:30 pm NE 15.5-----30.09- 73.0 75.2 65.8 35.00--
2024-04-17 08:30 pmENE 13.6-----30.06- 73.0 75.2 66.2 35.00--
2024-04-17 07:30 pmENE 13.6-----30.04- 72.7 75.2 66.7 35.00--
2024-04-17 06:30 pmENE 9.7-----30.03- 71.2 75.4 66.7 35.00--
2024-04-17 05:30 pm E 3.9-----30.01- 69.4 75.2 66.6 35.00--
2024-04-17 04:30 pmENE 5.8-----30.01- 71.2 75.4 64.9 35.00--
2024-04-17 03:30 pm E 13.6-----30.01- 71.4 75.4 65.3 35.00--
2024-04-17 02:30 pm E 11.7-----30.01- 72.3 75.4 66.0 35.00--
2024-04-17 01:30 pm NE 13.6-----30.02- 73.0 75.4 64.9 35.00--
2024-04-17 12:30 pm NE 11.7-----30.04- 73.4 75.4 65.5 35.00--
2024-04-17 11:30 am NE 9.7-----30.04- 73.2 75.2 65.5 35.00--
2024-04-17 10:30 am NE 7.8-----30.05- 72.9 75.2 64.8 35.00--
2024-04-17 09:30 am NE 11.7-----30.04- 73.0 75.0 63.5 35.00--
2024-04-17 08:30 am NE 11.7-----30.03- 72.7 75.0 64.6 35.00--
2024-04-17 07:30 am NE 9.7-----30.02- 73.0 75.0 64.9 35.00--

Ocean Conditions at 51WH0 as of
(5:30 am HAST)
1530 GMT on 04/18/2024:

These oceanographic data are displayed in rounded times.

     

Click on the graph icon in the table below to see a time series plot of the last five days of that observation.

Depth (DEPTH): 3.3 ft
5-day plot - Ocean Temperature Ocean Temperature (OTMP):74.84 °F
5-day plot - Salinity Salinity (SAL):35.00 psu
Previous observations
TIME
(HAST)
DEPTH
ft
5-day plot - Ocean Temperature
OTMP
°F
5-day plot - Conductivity
COND
mS/cm
5-day plot - Salinity
SAL
psu
5-day plot - Oxygen Concentration
O2%
%
5-day plot - Oxygen Concentration
O2PPM
ppm
5-day plot - Chlorophyll
CLCON
ug/l
5-day plot - Turbidity
TURB
FTU
5-day plot - pH
PH
 
5-day plot - Eh
EH
mv
2024-04-18 04:30 am 3.375.02-35.00------
2024-04-18 03:30 am 3.375.02-35.00------
2024-04-18 02:30 am 3.375.02-35.10------
2024-04-18 01:30 am 3.375.02-35.00------
2024-04-18 12:30 am 3.375.02-35.00------
2024-04-17 11:30 pm 3.375.20-35.00------
2024-04-17 10:30 pm 3.375.20-35.00------
2024-04-17 09:30 pm 3.375.20-35.00------
2024-04-17 08:30 pm 3.375.20-35.00------
2024-04-17 07:30 pm 3.375.20-35.00------
2024-04-17 06:30 pm 3.375.38-35.00------
2024-04-17 05:30 pm 3.375.20-35.00------
2024-04-17 04:30 pm 3.375.38-35.00------
2024-04-17 03:30 pm 3.375.38-35.00------
2024-04-17 02:30 pm 3.375.38-35.00------
2024-04-17 01:30 pm 3.375.38-35.00------
2024-04-17 12:30 pm 3.375.38-35.00------
2024-04-17 11:30 am 3.375.20-35.00------
2024-04-17 10:30 am 3.375.20-35.00------
2024-04-17 09:30 am 3.375.02-35.00------
2024-04-17 08:30 am 3.375.02-35.00------
2024-04-17 07:30 am 3.375.02-35.00------

Solar Radiation Conditions at 51WH0 as of
(5:30 am HAST)
1530 GMT on 04/18/2024:
     

Click on the graph icon in the table below to see a time series plot of the last five days of that observation.

5-day plot - Short Wave Radiation 2 Short Wave Radiation 2 (SWRAD): 6.4watts/meter2
5-day plot - Long Wave Radiation Long Wave Radiation (LWRAD): 412.3watts/meter2
Previous observations
TIME
(HAST)
5-day plot - Short Wave Radiation 1
SRAD1
w/m2
5-day plot - Short Wave Radiation 2
SRAD2
w/m2
5-day plot - Long Wave Radiation
LRAD
w/m2
2024-04-18 04:30 am- 6.5 405.3
2024-04-18 03:30 am- 6.3 412.3
2024-04-18 02:30 am- 5.9 410.3
2024-04-18 01:30 am- 5.0 407.0
2024-04-18 12:30 am- 6.2 403.8
2024-04-17 11:30 pm- 6.0 399.7
2024-04-17 10:30 pm- 6.4 372.2
2024-04-17 09:30 pm- 6.6 360.9
2024-04-17 08:30 pm- 7.1 361.7
2024-04-17 07:30 pm- 7.5 378.7
2024-04-17 06:30 pm- 24.2 409.4
2024-04-17 05:30 pm- 61.1 412.5
2024-04-17 04:30 pm- 217.6 410.8
2024-04-17 03:30 pm- 455.8 407.9
2024-04-17 02:30 pm- 668.5 406.4
2024-04-17 01:30 pm- 997.7 390.9
2024-04-17 12:30 pm-1009.7 372.9
2024-04-17 11:30 am- 717.2 399.8
2024-04-17 10:30 am- 571.3 407.8
2024-04-17 09:30 am- 384.0 403.0
2024-04-17 08:30 am- 292.1 393.5
2024-04-17 07:30 am- 180.5 369.1